Time,TemperatureF,DewpointF,PressureIn,WindDirection,WindDirectionDegrees,WindSpeedMPH,WindSpeedGustMPH,Humidity,HourlyPrecipIn,Conditions,Clouds,dailyrainin,SoftwareType,DateUTC
2013-04-14 00:02:00,59.0,45.0,29.98,NW,308,0.0,1.0,59,0.00,,,0.36,,2013-04-14 04:02:00,
2013-04-14 00:12:00,59.0,45.0,29.98,NW,308,0.0,1.0,59,0.00,,,0.36,,2013-04-14 04:12:00,
2013-04-14 00:23:00,63.0,39.0,29.99,WNW,291,3.0,5.0,41,0.00,,,0.00,,2013-04-14 04:23:00,
2013-04-14 00:33:00,63.0,39.0,29.99,West,267,0.0,4.0,41,0.00,,,0.00,,2013-04-14 04:33:00,
2013-04-14 00:43:00,63.0,39.0,29.99,West,267,0.0,4.0,41,0.00,,,0.00,,2013-04-14 04:43:00,
2013-04-14 00:52:00,60.0,40.0,29.99,West,267,0.0,0.0,48,0.00,,,0.00,,2013-04-14 04:52:00,
2013-04-14 01:03:00,58.0,40.0,30.00,West,267,0.0,0.0,51,0.00,,,0.00,,2013-04-14 05:03:00,
2013-04-14 01:12:00,58.0,40.0,30.00,West,267,0.0,0.0,51,0.00,,,0.00,,2013-04-14 05:12:00,
2013-04-14 01:22:00,58.0,42.0,30.00,West,267,0.0,0.0,56,0.00,,,0.00,,2013-04-14 05:22:00,
2013-04-14 01:32:00,57.0,41.0,30.01,West,267,0.0,0.0,55,0.00,,,0.00,,2013-04-14 05:32:00,
2013-04-14 01:42:00,57.0,41.0,30.01,West,267,0.0,0.0,55,0.00,,,0.00,,2013-04-14 05:42:00,
2013-04-14 01:52:00,56.0,42.0,30.00,West,267,0.0,0.0,60,0.00,,,0.00,,2013-04-14 05:52:00,
2013-04-14 02:02:00,56.0,42.0,30.01,West,267,0.0,0.0,59,0.00,,,0.00,,2013-04-14 06:02:00,
2013-04-14 02:12:00,56.0,42.0,30.01,West,267,0.0,0.0,59,0.00,,,0.00,,2013-04-14 06:12:00,
2013-04-14 02:22:00,56.0,41.0,30.01,West,267,0.0,0.0,57,0.00,,,0.00,,2013-04-14 06:22:00,
2013-04-14 02:32:00,55.0,40.0,30.00,West,267,0.0,0.0,57,0.00,,,0.00,,2013-04-14 06:32:00,
2013-04-14 02:42:00,55.0,40.0,30.00,West,267,0.0,0.0,57,0.00,,,0.00,,2013-04-14 06:42:00,
2013-04-14 02:53:00,56.0,39.0,30.01,West,267,0.0,0.0,53,0.00,,,0.00,,2013-04-14 06:53:00,
2013-04-14 03:02:00,55.0,40.0,30.00,West,267,0.0,0.0,56,0.00,,,0.00,,2013-04-14 07:02:00,
2013-04-14 03:12:00,55.0,40.0,30.00,West,267,0.0,0.0,56,0.00,,,0.00,,2013-04-14 07:12:00,
2013-04-14 03:22:00,54.0,41.0,30.00,West,267,0.0,0.0,61,0.00,,,0.00,,2013-04-14 07:22:00,
2013-04-14 03:32:00,53.0,41.0,30.00,West,267,0.0,0.0,64,0.00,,,0.00,,2013-04-14 07:32:00,
2013-04-14 03:42:00,53.0,41.0,30.00,West,267,0.0,0.0,64,0.00,,,0.00,,2013-04-14 07:42:00,
2013-04-14 03:52:00,53.0,41.0,30.00,West,267,0.0,0.0,64,0.00,,,0.00,,2013-04-14 07:52:00,
2013-04-14 04:02:00,53.0,42.0,30.00,West,267,0.0,0.0,66,0.00,,,0.00,,2013-04-14 08:02:00,
2013-04-14 04:12:00,53.0,42.0,30.00,West,267,0.0,0.0,66,0.00,,,0.00,,2013-04-14 08:12:00,
2013-04-14 04:22:00,52.0,43.0,30.00,West,267,0.0,0.0,71,0.00,,,0.00,,2013-04-14 08:22:00,
2013-04-14 04:32:00,51.0,42.0,30.01,West,267,0.0,0.0,72,0.00,,,0.00,,2013-04-14 08:32:00,
2013-04-14 04:42:00,51.0,42.0,30.01,West,267,0.0,0.0,72,0.00,,,0.00,,2013-04-14 08:42:00,
2013-04-14 04:52:00,51.0,42.0,30.01,West,267,0.0,0.0,70,0.00,,,0.00,,2013-04-14 08:52:00,
2013-04-14 05:03:00,51.0,42.0,30.01,West,267,0.0,0.0,70,0.00,,,0.00,,2013-04-14 09:03:00,
2013-04-14 05:12:00,51.0,42.0,30.01,West,267,0.0,0.0,70,0.00,,,0.00,,2013-04-14 09:12:00,
2013-04-14 05:22:00,52.0,43.0,30.01,SW,217,0.0,3.0,72,0.00,,,0.00,,2013-04-14 09:22:00,
2013-04-14 05:33:00,51.0,43.0,30.01,SW,217,0.0,0.0,73,0.00,,,0.00,,2013-04-14 09:33:00,
2013-04-14 05:43:00,51.0,43.0,30.01,SW,217,0.0,0.0,73,0.00,,,0.00,,2013-04-14 09:43:00,
2013-04-14 05:54:00,51.0,42.0,30.01,West,280,0.0,1.0,70,0.00,,,0.00,,2013-04-14 09:54:00,
2013-04-14 06:03:00,52.0,42.0,30.01,NW,322,0.0,1.0,68,0.00,,,0.00,,2013-04-14 10:03:00,
2013-04-14 06:12:00,52.0,42.0,30.01,NW,322,0.0,1.0,68,0.00,,,0.00,,2013-04-14 10:12:00,
2013-04-14 06:23:00,52.0,43.0,30.01,NNW,332,0.0,0.0,70,0.00,,,0.00,,2013-04-14 10:23:00,
2013-04-14 06:33:00,51.0,42.0,30.02,NNW,332,0.0,0.0,71,0.00,,,0.00,,2013-04-14 10:33:00,
2013-04-14 06:42:00,51.0,42.0,30.02,NNW,332,0.0,0.0,71,0.00,,,0.00,,2013-04-14 10:42:00,
2013-04-14 06:52:00,51.0,43.0,30.02,NNW,332,0.0,0.0,74,0.00,,,0.00,,2013-04-14 10:52:00,
2013-04-14 07:02:00,51.0,40.0,30.02,NNW,335,0.0,1.0,65,0.00,,,0.00,,2013-04-14 11:02:00,
2013-04-14 07:12:00,51.0,40.0,30.02,NNW,335,0.0,1.0,65,0.00,,,0.00,,2013-04-14 11:12:00,
2013-04-14 07:23:00,51.0,42.0,30.03,NNW,335,0.0,0.0,70,0.00,,,0.00,,2013-04-14 11:23:00,
2013-04-14 07:32:00,51.0,45.0,30.04,NNW,335,0.0,0.0,81,0.00,,,0.00,,2013-04-14 11:32:00,
2013-04-14 07:42:00,51.0,45.0,30.04,NNW,335,0.0,0.0,81,0.00,,,0.00,,2013-04-14 11:42:00,
2013-04-14 07:53:00,52.0,43.0,30.05,NNW,335,0.0,0.0,72,0.00,,,0.00,,2013-04-14 11:53:00,
2013-04-14 08:02:00,53.0,42.0,30.05,NNW,335,0.0,0.0,65,0.00,,,0.00,,2013-04-14 12:02:00,
2013-04-14 08:12:00,53.0,42.0,30.05,NNW,335,0.0,0.0,65,0.00,,,0.00,,2013-04-14 12:12:00,
2013-04-14 08:22:00,55.0,47.0,30.06,NNW,335,0.0,0.0,73,0.00,,,0.00,,2013-04-14 12:22:00,
2013-04-14 08:32:00,57.0,46.0,30.06,NNW,335,0.0,0.0,66,0.00,,,0.00,,2013-04-14 12:32:00,
2013-04-14 08:42:00,57.0,46.0,30.06,NNW,335,0.0,0.0,66,0.00,,,0.00,,2013-04-14 12:42:00,
2013-04-14 08:52:00,59.0,42.0,30.06,ENE,69,0.0,2.0,53,0.00,,,0.00,,2013-04-14 12:52:00,
2013-04-14 09:02:00,60.0,42.0,30.07,NE,48,0.0,3.0,51,0.00,,,0.00,,2013-04-14 13:02:00,
2013-04-14 09:12:00,60.0,42.0,30.07,NE,48,0.0,3.0,51,0.00,,,0.00,,2013-04-14 13:12:00,
2013-04-14 09:22:00,61.0,43.0,30.07,ENE,73,0.0,2.0,51,0.00,,,0.00,,2013-04-14 13:22:00,
2013-04-14 09:32:00,64.0,43.0,30.07,NNE,25,3.0,5.0,46,0.00,,,0.00,,2013-04-14 13:32:00,
2013-04-14 09:42:00,64.0,43.0,30.07,NNE,25,3.0,5.0,46,0.00,,,0.00,,2013-04-14 13:42:00,
2013-04-14 09:52:00,65.0,44.0,30.07,NE,51,3.0,5.0,47,0.00,,,0.00,,2013-04-14 13:52:00,
2013-04-14 10:02:00,67.0,41.0,30.06,NE,52,6.0,11.0,38,0.00,,,0.00,,2013-04-14 14:02:00,
2013-04-14 10:12:00,69.0,41.0,30.06,North,11,6.0,10.0,36,0.00,,,0.00,,2013-04-14 14:12:00,
2013-04-14 10:22:00,69.0,41.0,30.06,North,11,6.0,10.0,36,0.00,,,0.00,,2013-04-14 14:22:00,
2013-04-14 10:32:00,70.0,41.0,30.07,East,101,2.0,7.0,35,0.00,,,0.00,,2013-04-14 14:32:00,
2013-04-14 10:42:00,70.0,41.0,30.07,East,101,2.0,7.0,35,0.00,,,0.00,,2013-04-14 14:42:00,
2013-04-14 10:53:00,69.0,40.0,30.06,East,86,5.0,8.0,35,0.00,,,0.00,,2013-04-14 14:53:00,
2013-04-14 11:02:00,71.0,42.0,30.06,East,83,4.0,8.0,35,0.00,,,0.00,,2013-04-14 15:02:00,
2013-04-14 11:12:00,71.0,42.0,30.06,East,83,4.0,8.0,35,0.00,,,0.00,,2013-04-14 15:12:00,
2013-04-14 11:22:00,71.0,40.0,30.06,ENE,65,3.0,9.0,32,0.00,,,0.00,,2013-04-14 15:22:00,
2013-04-14 11:33:00,73.0,42.0,30.05,East,86,6.0,9.0,33,0.00,,,0.00,,2013-04-14 15:33:00,
2013-04-14 11:43:00,73.0,42.0,30.05,East,86,6.0,9.0,33,0.00,,,0.00,,2013-04-14 15:43:00,
2013-04-14 11:53:00,74.0,43.0,30.05,NE,52,4.0,10.0,33,0.00,,,0.00,,2013-04-14 15:53:00,
2013-04-14 12:04:00,74.0,42.0,30.05,ESE,110,0.0,8.0,32,0.00,,,0.00,,2013-04-14 16:04:00,
2013-04-14 12:13:00,74.0,42.0,30.05,ESE,110,0.0,8.0,32,0.00,,,0.00,,2013-04-14 16:13:00,
2013-04-14 12:23:00,76.0,41.0,30.05,NNE,31,4.0,13.0,29,0.00,,,0.00,,2013-04-14 16:23:00,
2013-04-14 12:33:00,75.0,43.0,30.05,East,101,2.0,8.0,32,0.00,,,0.00,,2013-04-14 16:33:00,
2013-04-14 12:43:00,75.0,43.0,30.05,East,101,2.0,8.0,32,0.00,,,0.00,,2013-04-14 16:43:00,
2013-04-14 12:53:00,76.0,45.0,30.05,SE,125,2.0,11.0,33,0.00,,,0.00,,2013-04-14 16:53:00,
2013-04-14 13:02:00,75.0,41.0,30.05,East,93,2.0,7.0,29,0.00,,,0.00,,2013-04-14 17:02:00,
2013-04-14 13:13:00,75.0,41.0,30.05,East,93,2.0,7.0,29,0.00,,,0.00,,2013-04-14 17:13:00,
2013-04-14 13:22:00,76.0,41.0,30.05,SSE,155,3.0,9.0,29,0.00,,,0.00,,2013-04-14 17:22:00,
2013-04-14 13:33:00,78.0,42.0,30.04,North,1,4.0,7.0,28,0.00,,,0.00,,2013-04-14 17:33:00,
2013-04-14 13:42:00,78.0,42.0,30.04,North,1,4.0,7.0,28,0.00,,,0.00,,2013-04-14 17:42:00,
2013-04-14 13:53:00,77.0,43.0,30.04,ESE,120,2.0,7.0,30,0.00,,,0.00,,2013-04-14 17:53:00,
2013-04-14 14:02:00,78.0,44.0,30.03,ENE,68,1.0,9.0,30,0.00,,,0.00,,2013-04-14 18:02:00,
2013-04-14 14:12:00,78.0,44.0,30.03,ENE,68,1.0,9.0,30,0.00,,,0.00,,2013-04-14 18:12:00,
2013-04-14 14:22:00,77.0,42.0,30.03,SE,142,2.0,9.0,29,0.00,,,0.00,,2013-04-14 18:22:00,
2013-04-14 14:32:00,78.0,42.0,30.03,NNE,13,2.0,10.0,28,0.00,,,0.00,,2013-04-14 18:32:00,
2013-04-14 14:43:00,78.0,42.0,30.03,NNE,13,2.0,10.0,28,0.00,,,0.00,,2013-04-14 18:43:00,
2013-04-14 14:53:00,77.0,41.0,30.02,South,183,0.0,10.0,28,0.00,,,0.00,,2013-04-14 18:53:00,
2013-04-14 15:03:00,76.0,45.0,30.02,ESE,110,1.0,6.0,33,0.00,,,0.00,,2013-04-14 19:03:00,
2013-04-14 15:12:00,76.0,45.0,30.02,ESE,110,1.0,6.0,33,0.00,,,0.00,,2013-04-14 19:12:00,
2013-04-14 15:22:00,76.0,41.0,30.01,South,186,1.0,5.0,28,0.00,,,0.00,,2013-04-14 19:22:00,
2013-04-14 15:32:00,77.0,42.0,30.01,WNW,283,4.0,7.0,29,0.00,,,0.00,,2013-04-14 19:32:00,
2013-04-14 15:42:00,77.0,42.0,30.01,WNW,283,4.0,7.0,29,0.00,,,0.00,,2013-04-14 19:42:00,
2013-04-14 15:53:00,77.0,42.0,30.01,SE,143,3.0,6.0,29,0.00,,,0.00,,2013-04-14 19:53:00,
2013-04-14 16:02:00,75.0,42.0,30.00,SSW,208,1.0,8.0,31,0.00,,,0.00,,2013-04-14 20:02:00,
2013-04-14 16:13:00,75.0,42.0,30.00,SSW,208,1.0,8.0,31,0.00,,,0.00,,2013-04-14 20:13:00,
2013-04-14 16:22:00,75.0,45.0,30.01,SSW,204,4.0,6.0,34,0.00,,,0.00,,2013-04-14 20:22:00,
2013-04-14 16:33:00,75.0,45.0,30.00,WSW,249,1.0,7.0,35,0.00,,,0.00,,2013-04-14 20:33:00,
2013-04-14 16:43:00,75.0,45.0,30.00,WSW,249,1.0,7.0,35,0.00,,,0.00,,2013-04-14 20:43:00,
2013-04-14 16:52:00,74.0,45.0,30.01,South,180,2.0,7.0,36,0.00,,,0.00,,2013-04-14 20:52:00,
2013-04-14 17:02:00,74.0,47.0,30.01,SSW,203,0.0,6.0,39,0.00,,,0.00,,2013-04-14 21:02:00,
2013-04-14 17:12:00,74.0,47.0,30.01,SSW,203,0.0,6.0,39,0.00,,,0.00,,2013-04-14 21:12:00,
2013-04-14 17:23:00,73.0,46.0,30.01,East,82,2.0,6.0,38,0.00,,,0.00,,2013-04-14 21:23:00,
2013-04-14 17:33:00,72.0,46.0,30.01,South,188,2.0,8.0,40,0.00,,,0.00,,2013-04-14 21:33:00,
2013-04-14 17:43:00,72.0,46.0,30.01,South,188,2.0,8.0,40,0.00,,,0.00,,2013-04-14 21:43:00,
2013-04-14 17:53:00,72.0,48.0,30.02,SSW,208,4.0,6.0,42,0.00,,,0.00,,2013-04-14 21:53:00,
2013-04-14 18:03:00,71.0,45.0,30.02,WSW,245,2.0,7.0,40,0.00,,,0.00,,2013-04-14 22:03:00,
2013-04-14 18:13:00,71.0,45.0,30.02,WSW,245,2.0,7.0,40,0.00,,,0.00,,2013-04-14 22:13:00,
2013-04-14 18:23:00,71.0,47.0,30.03,East,91,0.0,4.0,43,0.00,,,0.00,,2013-04-14 22:23:00,
2013-04-14 18:33:00,71.0,47.0,30.02,SW,225,0.0,5.0,43,0.00,,,0.00,,2013-04-14 22:33:00,
2013-04-14 18:44:00,71.0,47.0,30.02,SW,225,0.0,5.0,43,0.00,,,0.00,,2013-04-14 22:44:00,
2013-04-14 18:53:00,70.0,48.0,30.02,South,170,0.0,3.0,46,0.00,,,0.00,,2013-04-14 22:53:00,
2013-04-14 19:02:00,69.0,48.0,30.02,South,188,0.0,2.0,47,0.00,,,0.00,,2013-04-14 23:02:00,
2013-04-14 19:12:00,69.0,48.0,30.01,SE,125,0.0,3.0,47,0.00,,,0.00,,2013-04-14 23:12:00,
2013-04-14 19:23:00,69.0,48.0,30.01,SE,125,0.0,3.0,47,0.00,,,0.00,,2013-04-14 23:23:00,
2013-04-14 19:33:00,69.0,49.0,30.01,SSE,158,2.0,4.0,49,0.00,,,0.00,,2013-04-14 23:33:00,
2013-04-14 19:43:00,69.0,49.0,30.01,SSE,158,2.0,4.0,49,0.00,,,0.00,,2013-04-14 23:43:00,
2013-04-14 19:53:00,68.0,48.0,30.01,SSW,200,1.0,5.0,49,0.00,,,0.00,,2013-04-14 23:53:00,
2013-04-14 20:02:00,68.0,49.0,30.00,South,170,1.0,7.0,51,0.00,,,0.00,,2013-04-15 00:02:00,
2013-04-14 20:12:00,68.0,49.0,30.00,South,170,1.0,7.0,51,0.00,,,0.00,,2013-04-15 00:12:00,
2013-04-14 20:23:00,68.0,49.0,29.99,ESE,104,2.0,5.0,51,0.00,,,0.00,,2013-04-15 00:23:00,
2013-04-14 20:33:00,67.0,49.0,29.99,ESE,120,0.0,9.0,52,0.00,,,0.00,,2013-04-15 00:33:00,
2013-04-14 20:42:00,67.0,50.0,29.99,NE,39,2.0,8.0,54,0.00,,,0.00,,2013-04-15 00:42:00,
2013-04-14 20:52:00,67.0,50.0,29.99,NE,39,2.0,8.0,54,0.00,,,0.00,,2013-04-15 00:52:00,
2013-04-14 21:02:00,67.0,51.0,29.99,SE,124,1.0,7.0,57,0.00,,,0.00,,2013-04-15 01:02:00,
2013-04-14 21:12:00,67.0,51.0,29.99,SE,124,1.0,7.0,57,0.00,,,0.00,,2013-04-15 01:12:00,
2013-04-14 21:23:00,66.0,52.0,29.99,ESE,107,1.0,4.0,60,0.00,,,0.00,,2013-04-15 01:23:00,
2013-04-14 21:32:00,66.0,52.0,29.99,NE,51,1.0,5.0,61,0.00,,,0.00,,2013-04-15 01:32:00,
2013-04-14 21:42:00,66.0,52.0,29.99,NE,51,1.0,5.0,61,0.00,,,0.00,,2013-04-15 01:42:00,
2013-04-14 21:52:00,65.0,52.0,29.99,ENE,66,2.0,5.0,63,0.00,,,0.00,,2013-04-15 01:52:00,
2013-04-14 22:03:00,65.0,52.0,29.99,ESE,104,1.0,6.0,62,0.00,,,0.00,,2013-04-15 02:03:00,
2013-04-14 22:12:00,65.0,52.0,29.99,ESE,104,1.0,6.0,62,0.00,,,0.00,,2013-04-15 02:12:00,
2013-04-14 22:22:00,65.0,53.0,29.98,ESE,107,1.0,9.0,64,0.00,,,0.00,,2013-04-15 02:22:00,
2013-04-14 22:32:00,64.0,54.0,29.98,ENE,62,1.0,8.0,69,0.00,,,0.00,,2013-04-15 02:32:00,
2013-04-14 22:42:00,64.0,54.0,29.98,ENE,62,1.0,8.0,69,0.00,,,0.00,,2013-04-15 02:42:00,
2013-04-14 22:53:00,64.0,54.0,29.97,East,84,0.0,5.0,70,0.00,,,0.00,,2013-04-15 02:53:00,
2013-04-14 23:03:00,63.0,52.0,29.97,North,11,0.0,0.0,68,0.00,,,0.00,,2013-04-15 03:03:00,
2013-04-14 23:12:00,63.0,52.0,29.97,North,11,0.0,0.0,68,0.00,,,0.00,,2013-04-15 03:12:00,
2013-04-14 23:22:00,63.0,54.0,29.98,SE,129,2.0,4.0,72,0.00,,,0.00,,2013-04-15 03:22:00,
2013-04-14 23:33:00,63.0,53.0,29.98,East,91,0.0,5.0,69,0.00,,,0.00,,2013-04-15 03:33:00,
2013-04-14 23:43:00,63.0,53.0,29.98,East,91,0.0,5.0,69,0.00,,,0.00,,2013-04-15 03:43:00,
2013-04-14 23:55:00,63.0,53.0,29.97,North,3,2.0,5.0,71,0.00,,,0.00,,2013-04-15 03:55:00,